Dewpoint
24 25 25 25 25 26 28 31 28 31 30 29 29 30 31 32 34 35 35 36 35 36 36 38 39 40 41
25 22 21 22 24 30 28 22 21 24 28 28 29 30 31 32 32 33 33 35 38 40 39 38 39 39 39
21 23 25 26 26 25 20 19 17 24 27 28 29 31 30 30 31 32 34 32 31 33 34 34 34 35 37
26 27 23 27 26 19 17 19 19 19 24 29 28 27 28 29 29 28 28 29 30 31 31 32 32 34 35
23 26 22 19 17 19 19 20 23 26 19 19 20 21 22 26 26 27 28 29 31 33 34 34 34 36 37
25 20 18 18 19 21 24 21 18 20 20 20 21 20 21 22 27 28 28 29 29 30 31 32 33 36 34
18 18 18 21 26 24 22 23 21 21 22 20 20 19 20 20 27 28 29 29 29 31 33 33 34 34 33
19 22 25 22 20 20 23 25 24 20 19 18 19 18 19 20 27 28 29 29 30 30 31 32 34 36 37
27 25 24 25 24 24 22 20 17 16 18 18 18 19 19 20 21 28 28 28 28 29 29 30 32 32 32
16 18 20 20 25 21 24 20 19 17 17 20 20 21 20 20 22 21 22 26 27 28 29 32 33 32 32
17 18 19 18 19 21 24 23 20 19 20 23 22 21 20 20 20 20 20 22 22 23 27 31 33 34 32
18 18 18 20 21 22 23 24 25 24 25 25 22 22 21 20 18 19 20 22 23 22 24 29 33 36 36
18 18 19 21 22 22 23 23 23 24 26 26 25 24 24 21 20 20 21 21 23 24 27 29 30 30 28
18 18 18 19 19 21 21 20 21 21 24 26 28 26 23 23 23 20 22 21 24 26 29 32 33 33 32
18 18 17 18 19 20 21 21 20 20 22 24 25 25 25 24 21 23 25 25 29 31 32 32 33 33 33
18 17 17 18 18 19 20 20 20 21 22 23 23 22 22 25 27 23 27 30 32 32 32 31 31 33 34
17 18 19 17 18 18 19 19 19 22 23 24 23 21 19 20 25 31 27 31 32 32 32 31 31 32 34
Lifted_Index
22 22 21 19 18 16 15 14 13 13 13 12 12 11 11 11 11 10 10 10 9 9 8 8 8 7 7
21 20 18 16 15 14 13 13 14 14 13 13 12 11 11 11 10 10 10 10 9 9 8 8 7 7 7
18 17 15 14 13 13 13 13 14 14 14 13 12 12 11 11 11 11 11 10 10 9 9 8 7 7 7
15 14 13 13 12 12 13 14 14 14 14 14 13 13 13 12 12 12 12 11 10 10 9 9 8 8 7
13 13 13 12 12 13 14 14 14 14 15 15 15 15 14 14 14 14 13 12 11 10 9 9 8 8 7
13 13 13 13 13 14 14 14 14 14 15 16 16 16 15 15 15 14 13 11 10 9 9 8 8 7 7
14 14 14 14 14 14 15 15 15 16 16 16 16 16 15 15 14 13 12 11 10 9 9 8 7 7 6
15 15 15 15 15 15 15 15 15 16 17 16 16 15 15 14 14 13 12 11 10 10 9 8 7 7 6
15 15 15 15 15 16 16 15 15 15 16 16 15 15 14 14 13 13 12 11 11 10 10 9 8 8 8
15 15 15 15 15 15 16 16 15 15 16 16 16 15 14 13 13 13 12 11 11 10 10 9 9 9 9
15 15 15 14 15 15 16 16 16 15 16 16 16 15 14 13 12 12 11 10 9 9 8 8 8 8 8
14 14 14 14 14 15 15 16 16 16 16 16 16 15 14 12 10 10 9 9 8 7 7 7 7 7 7
14 14 15 15 15 15 15 15 15 15 15 15 15 14 12 11 9 8 8 7 7 7 7 7 7 6 6
14 15 15 15 15 14 14 14 14 14 14 14 13 12 11 9 8 7 7 7 7 7 7 7 7 6 5
15 15 14 14 14 14 14 13 13 13 13 12 12 11 10 9 8 7 7 7 7 7 7 7 7 6 5
14 14 14 13 13 13 13 13 13 12 12 12 10 9 8 8 8 7 7 7 8 8 8 7 7 5 4
14 14 13 13 13 13 13 13 12 12 12 11 10 8 8 7 8 8 7 7 8 8 8 8 7 5 4